Flag for Belgium Weather past 2 weeks in Liège, Belgium

Now
36 °F

Fog.


Feels Like: 28 °F
Forecast: 36 / 41 °F
Wind: 10 mph from South

Location: Bierset

Current Time: Jan 26, 2015 at 7:30:16 AM

Latest Report: Jan 26, 2015 at 6:50 AM


Visibility: 1 mi

Pressure: 30.21 "Hg

Humidity: 93%

Dew point: 34 °F

Location of LiègeLocation

Historic Weather in Liège — Graph

°F

Liège temperature yesterday

Maximum temperature yesterday: 36 °F (at 11:50 AM)
Minimum temperature yesterday: 28 °F (at 1:50 AM)
Average temperature yesterday: 34 °F

Past Weeks' High & Low Weather Summary

 TemperatureHumidityPressure
High50 °F (Jan 13, 11:50 AM)100% (Jan 14, 12:50 PM)30.45 "Hg (Jan 14, 12:50 PM)
Low28 °F (Jan 21, 12:50 AM)61% (Jan 18, 2:50 PM)29.45 "Hg (Jan 15, 1:50 PM)
Average36 °F83%29.96 "Hg
* Reported Jan 11 6:20 AM — Jan 26 6:20 AM, Liège, Weather by CustomWeather, © 2014

Note: Actual official high and low records may vary slightly from our data, if they occured in-between our weather recording intervals... More about our weather records

Advertising

Liège weather history for previous 24 hours

 ConditionsComfort  
Time TempWeatherWind HumidityBarometerVisibility
6:20 AM
Jan 26
36 °FFog.10 mph93%30.21 "Hg1 mi
5:50 AM36 °FFog.10 mph93%30.21 "Hg1 mi
5:20 AM36 °FFog.10 mph93%30.21 "Hg1 mi
4:50 AM36 °FFog.10 mph93%30.24 "Hg1 mi
4:20 AM36 °FFog.10 mph93%30.24 "Hg1 mi
3:50 AM36 °FFog.10 mph93%30.27 "Hg1 mi
3:20 AM36 °FLight rain. Partly cloudy.10 mph93%30.27 "Hg1 mi
2:50 AM36 °FLight rain. Partly cloudy.10 mph93%30.27 "Hg1 mi
2:20 AM36 °FLight rain. Partly cloudy.10 mph87%30.30 "Hg2 mi
1:50 AM36 °FPartly cloudy.10 mph87%30.30 "Hg4 mi
1:20 AM36 °FPartly cloudy.10 mph87%30.30 "Hg4 mi
12:50 AM36 °FFog.10 mph87%30.30 "Hg3 mi
12:20 AM36 °FFog.12 mph87%30.33 "Hg3 mi
11:50 PM
Jan 25
36 °FFog.10 mph93%30.33 "Hg2 mi
11:20 PM36 °FLight rain. Partly cloudy.10 mph93%30.33 "Hg2 mi
10:50 PM36 °FLight rain. Passing clouds.9 mph93%30.36 "Hg2 mi
10:20 PM36 °FLight rain. Passing clouds.10 mph93%30.36 "Hg2 mi
9:50 PM36 °FLight rain. Passing clouds.9 mph93%30.36 "Hg1 mi
9:20 PM36 °FLight rain. Passing clouds.10 mph93%30.39 "Hg2 mi
8:50 PM36 °FLight rain. Passing clouds.9 mph93%30.39 "Hg2 mi
8:20 PM36 °FLight rain. Passing clouds.8 mph93%30.39 "Hg2 mi
7:50 PM36 °FLight rain. Partly cloudy.8 mph93%30.39 "Hg2 mi
7:20 PM36 °FLight rain. Passing clouds.8 mph93%30.39 "Hg3 mi
6:50 PM36 °FLight rain. Passing clouds.8 mph93%30.39 "Hg4 mi
6:20 PM36 °FLight rain. Fog.8 mph93%30.39 "Hg3 mi
5:50 PM36 °FLight rain. Fog.8 mph93%30.39 "Hg3 mi
5:20 PM36 °FFog.8 mph93%30.39 "Hg3 mi
4:50 PM36 °FFog.8 mph93%30.39 "Hg2 mi
4:20 PM36 °FFog.8 mph93%30.39 "Hg2 mi
3:50 PM36 °FFog.8 mph93%30.39 "Hg1 mi
3:20 PM36 °FLight rain. Fog.8 mph93%30.39 "Hg1 mi
2:50 PM36 °FLight rain. Fog.8 mph93%30.39 "Hg2 mi
2:20 PM36 °FFog.7 mph93%30.39 "Hg2 mi
1:50 PM36 °FFog.9 mph87%30.39 "Hg2 mi
1:20 PM36 °FLight rain. Fog.9 mph87%30.39 "Hg2 mi
12:50 PM36 °FLight rain. Fog.8 mph87%30.42 "Hg2 mi
12:20 PM34 °FFog.8 mph93%30.42 "Hg2 mi
11:50 AM36 °FFog.8 mph87%30.42 "Hg2 mi
11:20 AM34 °FFog.7 mph93%30.42 "Hg3 mi
10:50 AM34 °FFog.9 mph93%30.45 "Hg3 mi
10:20 AM34 °FFog.8 mph87%30.45 "Hg3 mi
9:50 AM32 °FIce fog.8 mph93%30.42 "Hg2 mi
9:20 AM34 °FFog.9 mph87%30.42 "Hg3 mi
8:50 AM34 °FFog.7 mph87%30.42 "Hg3 mi
8:20 AM32 °FIce fog.7 mph93%30.42 "Hg3 mi
7:50 AM32 °FIce fog.8 mph93%30.42 "Hg3 mi
7:20 AM32 °FIce fog.8 mph93%30.42 "Hg3 mi
Weather by CustomWeather, © 2014

See weather overviewHow to use our weather pages